[[{"header":{"parameterUnit":"m.s-1","parameterCategory":1,"la1":30.2991,"la2":30.254,"lo1":-89.0895,"lo2":-89.0444,"dy":0.0017,"dx":0.0017,"nx":28,"ny":28,"refTime":"2025-09-04T21:00:00:Z","depth":0,"parameterNumber":2,"parameterNumberName":"U-component_of_WINDS"},"data":[0,0,0,0,0,0,0,0,0,0,0,0,0,0,0,0,0,0,0,0,0,0,0,0,0,0,0,0,0,0,0,0,0,0,0,0,0,0,0,0,0,0,0,0,0,0,0,0,0,0,0,0,0,0,0,0,0,0,-0.6329,-0.6329,0,-0.6302,-0.6301,-0.6301,-0.6269,-0.6268,-0.6268,-0.6267,-0.6237,-0.6237,-0.6237,0,0,0,0,0,0,0,0,0,0,0,0,0,-0.6354,-0.6354,-0.6329,-0.6329,-0.6328,-0.6302,-0.6301,-0.6301,-0.6269,-0.6268,-0.6268,-0.6267,-0.6238,-0.6237,-0.6237,0,0,0,0,0,0,0,0,0,0,0,0,0,-0.6336,-0.6354,-0.6329,-0.6309,-0.6307,-0.6302,-0.6301,-0.6301,-0.6269,-0.6268,-0.6267,-0.6267,-0.6238,-0.6237,-0.6237,-0.6248,0,0,-0.6235,-0.6235,0,0,0,0,0,0,0,0,-0.6338,-0.6336,-0.6312,-0.6311,-0.6308,-0.6288,-0.6299,-0.6283,-0.6269,-0.6283,-0.6267,-0.6266,-0.6255,-0.6253,-0.6249,-0.6247,-0.6246,-0.6235,-0.6235,-0.6235,-0.6234,0,0,0,0,0,0,0,-0.6339,-0.6337,-0.6318,-0.6312,-0.631,-0.6302,-0.6298,-0.6296,-0.6273,-0.6282,-0.628,-0.6277,-0.6253,-0.625,-0.6248,-0.6245,-0.6235,-0.6235,-0.6234,-0.6234,-0.6255,-0.6255,0,0,0,0,0,0,-0.6343,-0.6338,-0.6319,-0.6317,-0.6321,-0.6302,-0.6298,-0.6295,-0.6273,-0.6269,-0.6278,-0.6275,-0.6251,-0.6249,-0.6247,-0.6261,-0.6235,-0.6234,-0.6234,-0.6254,-0.6255,-0.6256,0,0,0,0,0,0,-0.6344,-0.6342,-0.632,-0.6327,-0.6324,-0.6302,-0.6299,-0.6295,-0.6291,-0.627,-0.6266,-0.6278,-0.625,-0.6248,-0.6249,-0.626,-0.6234,-0.6233,-0.6253,-0.6254,-0.6255,-0.6289,0,0,0,0,0,0,-0.6345,-0.6342,-0.6346,-0.6327,-0.6323,-0.6323,-0.63,-0.6295,-0.6291,-0.6288,-0.6269,-0.6266,-0.625,-0.625,-0.6249,-0.6259,-0.6233,-0.6252,-0.6253,-0.6255,-0.6286,-0.6291,-0.6295,0,0,0,0,0,-0.6346,-0.6355,-0.6346,-0.6344,-0.6328,-0.6323,-0.6321,-0.6303,-0.6292,-0.6296,-0.6283,-0.6266,-0.6259,-0.625,-0.6249,-0.6258,-0.6251,-0.6253,-0.6255,-0.6285,-0.629,-0.6295,0,0,0,0,0,0,-0.6374,-0.6353,-0.6342,-0.6346,-0.6337,-0.6318,-0.6322,-0.6309,-0.6302,-0.6299,-0.6277,-0.6273,-0.6277,-0.6268,-0.6259,-0.627,-0.6253,-0.6254,-0.6276,-0.6281,-0.6285,-0.6287,-0.6233,0,0,0,0,0,-0.6382,-0.638,-0.6361,-0.6366,-0.6362,-0.6343,-0.6341,-0.6328,-0.6317,-0.6313,-0.6299,-0.6289,-0.6285,-0.6282,-0.6277,-0.6285,-0.6282,-0.6291,-0.6295,-0.6299,-0.6301,-0.6307,-0.6311,-0.6262,-0.6262,-0.6262,0,0,-0.6396,-0.6384,-0.6384,-0.6372,-0.6363,-0.6363,-0.634,-0.6339,-0.6339,-0.6312,-0.6313,-0.6304,-0.6291,-0.6297,-0.6298,-0.6289,-0.6314,-0.6301,-0.6304,-0.6304,-0.6309,-0.6314,-0.6318,-0.6263,-0.6263,-0.6263,0,0,-0.6422,-0.6412,-0.6416,-0.6409,-0.6397,-0.6384,-0.6386,-0.6369,-0.6362,-0.6363,-0.6344,-0.6343,-0.6335,-0.6328,-0.6323,-0.635,-0.6335,-0.6349,-0.637,-0.6376,-0.638,-0.6384,-0.6395,-0.6399,-0.6351,-0.6351,-0.6351,0,-0.644,-0.6438,-0.642,-0.6422,-0.6418,-0.6396,-0.6401,-0.6394,-0.6381,-0.6379,-0.6369,-0.6361,-0.6351,-0.6356,-0.6363,-0.6359,-0.6361,-0.6351,-0.6381,-0.6384,-0.6387,-0.6398,-0.6402,-0.6353,-0.6352,-0.6352,-0.6352,0,-0.6463,-0.6463,-0.6468,-0.6457,-0.6454,-0.6457,-0.644,-0.6439,-0.6428,-0.6417,-0.642,-0.6407,-0.64,-0.64,-0.6388,-0.6404,-0.6399,-0.6385,-0.6367,-0.6394,-0.6404,-0.6407,-0.6355,-0.6355,-0.6354,-0.6354,0,0,-0.6505,-0.6486,-0.6488,-0.6485,-0.6471,-0.647,-0.6473,-0.6467,-0.6468,-0.646,-0.6463,-0.6459,-0.6447,-0.6442,-0.6429,-0.6434,-0.6459,-0.642,-0.642,-0.6429,-0.6478,-0.6489,-0.6494,-0.6449,-0.645,-0.645,-0.648,0,-0.6529,-0.6533,-0.6518,-0.6527,-0.6527,-0.6508,-0.6511,-0.6503,-0.6494,-0.6493,-0.6482,-0.648,-0.6464,-0.6462,-0.6466,-0.6455,-0.6468,-0.6452,-0.6452,-0.6453,-0.6457,-0.6498,-0.6509,-0.6537,-0.6483,-0.6483,-0.6484,0,-0.6556,-0.6552,-0.6561,-0.655,-0.6549,-0.6552,-0.6547,-0.6546,-0.6538,-0.6531,-0.6527,-0.6513,-0.6516,-0.65,-0.6505,-0.6494,-0.6494,-0.6489,-0.6489,-0.6489,-0.647,-0.65,-0.6545,-0.655,-0.6489,-0.6489,-0.6488,0,-0.6588,-0.6584,-0.6589,-0.6586,-0.6573,-0.6576,-0.657,-0.6561,-0.656,-0.6555,-0.6555,-0.655,-0.6548,-0.6546,-0.6532,-0.652,-0.6539,-0.652,-0.6534,-0.6535,-0.6539,-0.6539,-0.6586,-0.6537,-0.6537,-0.6537,-0.6537,0,-0.6616,-0.6623,-0.6604,-0.6607,-0.6615,-0.6598,-0.6606,-0.6599,-0.6592,-0.6594,-0.6576,-0.6579,-0.656,-0.656,-0.6549,-0.6556,-0.6555,-0.655,-0.6547,-0.6552,-0.6553,-0.6551,-0.655,-0.6538,-0.6538,-0.6538,-0.6538,0,-0.6652,-0.6639,-0.6644,-0.6632,-0.6629,-0.6635,-0.6625,-0.6628,-0.6619,-0.6622,-0.6622,-0.6607,-0.6608,-0.6593,-0.659,-0.6583,-0.6595,-0.6588,-0.6598,-0.6596,-0.6612,-0.6611,-0.666,-0.6666,-0.6613,-0.6613,-0.6614,0,-0.6671,-0.6676,-0.6665,-0.6666,-0.6662,-0.6663,-0.6662,-0.6646,-0.6646,-0.6639,-0.6644,-0.6643,-0.6641,-0.6643,-0.6632,-0.6631,-0.6624,-0.6642,-0.6624,-0.6629,-0.6626,-0.6626,-0.6628,-0.6645,-0.6646,-0.6646,-0.6647,0,-0.6707,-0.6701,-0.6701,-0.6699,-0.6699,-0.6697,-0.6693,-0.6695,-0.6678,-0.6679,-0.668,-0.6679,-0.6678,-0.6677,-0.6674,-0.6669,-0.6656,-0.6653,-0.6656,-0.6661,-0.6668,-0.6666,-0.661,-0.6652,-0.6651,-0.6651,-0.665,-0.665,-0.6736,-0.6741,-0.6734,-0.6735,-0.6731,-0.6729,-0.6733,-0.6725,-0.6725,-0.6723,-0.6714,-0.6717,-0.6711,-0.6706,-0.6702,-0.6705,-0.6696,-0.6701,-0.6702,-0.6704,-0.6707,-0.6667,-0.6704,-0.6704,-0.6704,-0.6704,-0.6704,0,-0.6772,-0.6768,-0.6769,-0.6766,-0.6767,-0.6756,-0.6752,-0.6754,-0.6757,-0.6753,-0.6753,-0.6755,-0.6756,-0.6746,-0.6746,-0.675,-0.6744,-0.675,-0.675,-0.675,-0.6714,-0.6712,-0.6755,-0.6755,-0.6755,-0.6755,-0.6755,-0.6755,-0.6792,-0.68,-0.6794,-0.68,-0.6796,-0.6799,-0.6799,-0.6797,-0.6794,-0.6798,-0.6799,-0.6793,-0.6787,-0.6787,-0.6787,-0.6785,-0.6786,-0.6795,-0.679,-0.6757,-0.6752,-0.6747,-0.6745,-0.6795,-0.6795,-0.6826,-0.6826,-0.6826]},{"header":{"parameterUnit":"m.s-1","parameterCategory":1,"la1":30.2991,"la2":30.254,"lo1":-89.0895,"lo2":-89.0444,"dy":0.0017,"dx":0.0017,"nx":28,"ny":28,"refTime":"2025-09-04T21:00:00:Z","depth":0,"parameterNumber":3,"parameterNumberName":"V-component_of_WINDS"},"data":[0,0,0,0,0,0,0,0,0,0,0,0,0,0,0,0,0,0,0,0,0,0,0,0,0,0,0,0,0,0,0,0,0,0,0,0,0,0,0,0,0,0,0,0,0,0,0,0,0,0,0,0,0,0,0,0,0,0,3.1445,3.1445,0,3.1425,3.1424,3.1424,3.1427,3.1427,3.1427,3.1428,3.1404,3.1404,3.1403,0,0,0,0,0,0,0,0,0,0,0,0,0,3.1483,3.1482,3.1445,3.1445,3.1445,3.1425,3.1424,3.1424,3.1427,3.1427,3.1427,3.1428,3.1405,3.1404,3.1403,0,0,0,0,0,0,0,0,0,0,0,0,0,3.1465,3.1482,3.1445,3.1444,3.1443,3.1425,3.1424,3.1424,3.1427,3.1427,3.1428,3.1428,3.1405,3.1404,3.1402,3.1383,0,0,3.1398,3.1397,0,0,0,0,0,0,0,0,3.1466,3.1463,3.1444,3.1444,3.1443,3.1429,3.1429,3.141,3.1426,3.1433,3.1428,3.1428,3.1412,3.141,3.1405,3.1382,3.1381,3.1398,3.1397,3.1397,3.1396,0,0,0,0,0,0,0,3.1467,3.1464,3.1437,3.1444,3.1443,3.1443,3.1441,3.1425,3.142,3.1432,3.1432,3.143,3.1412,3.1406,3.1404,3.1381,3.1398,3.1397,3.1396,3.1395,3.1338,3.1338,0,0,0,0,0,0,3.1469,3.1465,3.1438,3.1436,3.1456,3.1441,3.1439,3.1433,3.142,3.1418,3.143,3.143,3.1409,3.1406,3.1404,3.1378,3.1397,3.1395,3.1394,3.1339,3.1338,3.1337,0,0,0,0,0,0,3.147,3.1467,3.1438,3.1451,3.1447,3.144,3.1433,3.1432,3.1427,3.1418,3.1417,3.1425,3.1409,3.1406,3.1388,3.1378,3.1395,3.1393,3.134,3.1339,3.1338,3.1329,0,0,0,0,0,0,3.1471,3.1467,3.1461,3.1451,3.1446,3.1424,3.1433,3.1431,3.1425,3.1425,3.1414,3.1412,3.1409,3.139,3.1386,3.1376,3.1392,3.1341,3.1339,3.1338,3.133,3.1328,3.1326,0,0,0,0,0,3.1472,3.1459,3.146,3.1457,3.1439,3.1424,3.1421,3.1418,3.1424,3.1416,3.141,3.1412,3.138,3.1388,3.1384,3.1373,3.1341,3.134,3.1338,3.1331,3.1328,3.1326,0,0,0,0,0,0,3.1468,3.1458,3.1459,3.1443,3.1434,3.1424,3.1415,3.1416,3.1405,3.1406,3.1402,3.14,3.1381,3.1376,3.1385,3.1353,3.1361,3.1359,3.1357,3.1354,3.1352,3.1353,3.1391,0,0,0,0,0,3.1465,3.1455,3.1446,3.1432,3.1428,3.1422,3.1415,3.1414,3.1405,3.1401,3.1394,3.1384,3.1371,3.1362,3.135,3.133,3.1326,3.132,3.1318,3.1316,3.1314,3.1299,3.1296,3.1333,3.1333,3.1333,0,0,3.1459,3.1452,3.1446,3.1431,3.1424,3.1412,3.1419,3.1406,3.1397,3.1399,3.1381,3.1375,3.1364,3.1344,3.1334,3.1338,3.1302,3.1314,3.1313,3.1311,3.1297,3.1294,3.1291,3.1332,3.1332,3.1332,0,0,3.1441,3.1436,3.1423,3.1415,3.1405,3.1401,3.1398,3.1387,3.1383,3.1366,3.1366,3.1354,3.1333,3.1324,3.1316,3.1292,3.1293,3.1289,3.1277,3.1263,3.126,3.1257,3.1246,3.1243,3.1286,3.1286,3.1286,0,3.1435,3.1417,3.1416,3.1402,3.1395,3.1396,3.1381,3.1374,3.136,3.1354,3.1359,3.133,3.1323,3.1299,3.1293,3.1288,3.1282,3.129,3.1261,3.1258,3.1256,3.1245,3.1241,3.1286,3.1286,3.1286,3.1286,0,3.1409,3.1396,3.1387,3.1373,3.1364,3.135,3.1345,3.1336,3.1335,3.133,3.131,3.1301,3.1286,3.128,3.1279,3.1256,3.1258,3.1262,3.127,3.1252,3.1241,3.1238,3.1285,3.1285,3.1285,3.1286,0,0,3.1388,3.1372,3.1369,3.1361,3.1349,3.1339,3.1324,3.1309,3.13,3.129,3.1276,3.1257,3.1259,3.1251,3.1249,3.1237,3.1215,3.1241,3.1241,3.1235,3.1185,3.1181,3.1176,3.1216,3.1215,3.1214,3.1185,0,3.1368,3.1342,3.1339,3.1316,3.1303,3.1303,3.129,3.1279,3.1274,3.1261,3.1254,3.124,3.1246,3.124,3.1228,3.122,3.1205,3.1222,3.12,3.1199,3.1201,3.1172,3.1168,3.1141,3.1182,3.1181,3.118,0,3.1341,3.133,3.1305,3.1292,3.1286,3.1274,3.1259,3.1248,3.1235,3.1231,3.1221,3.1219,3.1201,3.1211,3.1185,3.1197,3.1187,3.1182,3.1181,3.1177,3.1188,3.1165,3.1133,3.1128,3.1175,3.1175,3.1176,0,3.1326,3.1304,3.1286,3.128,3.1265,3.1256,3.1249,3.1237,3.1228,3.1214,3.1207,3.1192,3.1183,3.117,3.1163,3.1171,3.1136,3.1146,3.1131,3.1131,3.1123,3.1123,3.1086,3.112,3.112,3.112,3.112,0,3.1303,3.1287,3.1279,3.1267,3.1249,3.1245,3.1226,3.1219,3.1208,3.1194,3.1193,3.1179,3.1172,3.1157,3.1151,3.1129,3.1125,3.112,3.1118,3.1119,3.1119,3.1112,3.1113,3.1119,3.1119,3.1119,3.1119,0,3.1283,3.1277,3.1257,3.1244,3.124,3.1226,3.1214,3.1202,3.1196,3.1178,3.1173,3.1163,3.1144,3.1136,3.1114,3.111,3.1083,3.1084,3.1088,3.1087,3.1071,3.1071,3.1026,3.1019,3.1059,3.1059,3.1059,0,3.1268,3.1255,3.1241,3.1231,3.1224,3.1209,3.1199,3.1194,3.1183,3.1166,3.1155,3.1137,3.1122,3.1092,3.1081,3.1063,3.1062,3.1047,3.1059,3.1059,3.1058,3.1058,3.1056,3.1044,3.1044,3.1044,3.1043,0,3.1241,3.1238,3.1224,3.1208,3.1197,3.1184,3.1171,3.1163,3.1156,3.1143,3.1124,3.1112,3.1088,3.1069,3.105,3.1041,3.1039,3.104,3.1035,3.1034,3.1036,3.1032,3.1079,3.1041,3.1041,3.1041,3.1041,3.1041,3.1221,3.1209,3.1196,3.118,3.117,3.1158,3.1145,3.1137,3.1121,3.1102,3.1099,3.1078,3.1062,3.1036,3.1026,3.1008,3.1012,3.1005,3.1003,3.1001,3.0999,3.104,3.1005,3.1005,3.1005,3.1005,3.1005,0,3.1192,3.1184,3.1169,3.1151,3.1137,3.1139,3.1124,3.1112,3.1094,3.108,3.1065,3.1041,3.1022,3.1009,3.0989,3.0976,3.0975,3.0971,3.0971,3.0968,3.0998,3.1003,3.0972,3.0972,3.0972,3.0972,3.0972,3.0972,3.1176,3.1155,3.115,3.1123,3.1114,3.1094,3.1085,3.1072,3.1061,3.1035,3.1019,3.1011,3.0996,3.0975,3.0956,3.0952,3.0943,3.0939,3.0935,3.0963,3.0966,3.097,3.0974,3.0937,3.0937,3.0906,3.0906,3.0905]}]]